Location: Beaurevoir
(49.9971°N, 3.3085°E)
Time: 02:03:47
(UTC+00:00)

H-2A R/B - Pass Details

Date: 23 May 2024
Orbit: 567 x 637 km, 98.4° (Epoch: 16 June)

Event Time Altitude Azimuth Distance (km) Brightness Sun altitude
Rises 00:30:58 0° 9° (N) 2,954 7.2 -18.6°
Reaches altitude 10° 00:33:17 10° 2° (N) 2,040 5.9 -18.5°
Maximum altitude 00:37:26 40° 293° (WNW) 950 3.0 -18.4°
Enters shadow 00:39:22 26° 243° (WSW) 1,270 3.3 -18.3°
